This is the latest recevied weather packets stored in our database for station/object W8CEN. If no packets are shown the sender has not sent any weather packets the latest 1 day(s).
| Time | Temp. | Humidity | Pressure | Rain* | Wind** | Luminosity | Snow |
|---|---|---|---|---|---|---|---|
| 1778009825 | 11.67° C | 91% | 987.1 hPa | 1.78 mm | 0.45 m/s, 283° | 120 W/m² | - |
| 1778009522 | 11.67° C | 92% | 987.3 hPa | 1.27 mm | 0 m/s | 110 W/m² | - |
| 1778009221 | 11.67° C | 91% | 987.3 hPa | 3.05 mm | 0.89 m/s, 257° | 58 W/m² | - |
| 1778008918 | 11.67° C | 92% | 987.3 hPa | 1.78 mm | 0.89 m/s, 277° | 63 W/m² | - |
| 1778008616 | 11.67° C | 92% | 987.3 hPa | 1.27 mm | 0.45 m/s, 305° | 62 W/m² | - |
| 1778008314 | 11.67° C | 91% | 987.3 hPa | 1.27 mm | 0.89 m/s, 296° | 58 W/m² | - |
| 1778008010 | 11.67° C | 90% | 987.1 hPa | 1.78 mm | 0.89 m/s, 265° | 46 W/m² | - |
| 1778007709 | 11.67° C | 91% | 987.1 hPa | 1.78 mm | 0.45 m/s, 249° | 74 W/m² | - |
| 1778007406 | 11.67° C | 90% | 986.7 hPa | 3.05 mm | 0.45 m/s, 319° | 104 W/m² | - |
| 1778007103 | 11.67° C | 90% | 986.8 hPa | 4.32 mm | 0.89 m/s, 238° | 86 W/m² | - |
| 1778006799 | 12.22° C | 89% | 987.2 hPa | 3.05 mm | 0.89 m/s, 244° | 79 W/m² | - |
| 1778006496 | 12.22° C | 89% | 987.1 hPa | 3.05 mm | 0 m/s | 75 W/m² | - |
| 1778006193 | 12.78° C | 87% | 986.9 hPa | 3.56 mm | 0.45 m/s, 256° | 83 W/m² | - |
| 1778005891 | 12.78° C | 86% | 986.7 hPa | 3.05 mm | 1.34 m/s, 248° | 60 W/m² | - |
| 1778005587 | 13.33° C | 86% | 986.8 hPa | 3.05 mm | 0.89 m/s, 242° | 90 W/m² | - |
| 1778005284 | 13.33° C | 85% | 986.6 hPa | 3.05 mm | 0.89 m/s, 263° | 49 W/m² | - |
| 1778004981 | 13.33° C | 83% | 986.5 hPa | 3.05 mm | 0.45 m/s, 277° | 79 W/m² | - |
| 1778004678 | 13.89° C | 81% | 986.3 hPa | 1.78 mm | 0 m/s | 81 W/m² | - |
| 1778004374 | 13.89° C | 78% | 986.4 hPa | 1.27 mm | 0 m/s | 97 W/m² | - |
| 1778004072 | 13.89° C | 75% | 986.2 hPa | 1.27 mm | 0.89 m/s, 247° | 78 W/m² | - |
| 1778003767 | 14.44° C | 73% | 986.1 hPa | 0 mm | 0.89 m/s, 277° | 91 W/m² | - |
| 1778003464 | 14.44° C | 73% | 986.1 hPa | 0 mm | 0.45 m/s, 237° | 119 W/m² | - |
| 1778003160 | 15° C | 71% | 986.2 hPa | 0 mm | 0 m/s | 111 W/m² | - |
| 1778002856 | 15° C | 69% | 986.1 hPa | 0 mm | 0.45 m/s, 273° | 135 W/m² | - |
| 1778002553 | 15° C | 67% | 986.1 hPa | 0 mm | 0.89 m/s, 238° | 129 W/m² | - |
* Rain latest hour (hover to see other rain measurements)
** Current wind speed in m/s (hover to see current wind gust speed)